Wichita Dwight D. Eisenhower National Airport Airport (ICT)

 

Airport Diagram
Current Weather/Forecast (VFR Conditions)
METAR KICT 250153Z 01008KT 10SM FEW150 05/M05 A3026 RMK AO2 SLP254 T00501050
TAF KICT 242330Z 2500/2524 01011KT P6SM SCT150 FM250300 03008KT P6SM SCT120

All Charts
General
Chart Name Download
AIRPORT DIAGRAM
TAKEOFF MINIMUMS
ALTERNATE MINIMUMS
HOT SPOT

Approaches
Chart Name Download
ILS OR LOC RWY 01L
ILS OR LOC RWY 01R
ILS OR LOC RWY 19L
ILS OR LOC RWY 19R
ILS RWY 01L (SA CAT I)
ILS RWY 01L (CAT II)
RNAV (RNP) Z RWY 01L
RNAV (RNP) Z RWY 14
RNAV (RNP) Z RWY 19L
RNAV (RNP) Z RWY 19R
RNAV (GPS) RWY 01R
RNAV (GPS) RWY 32
RNAV (GPS) Y RWY 01L
RNAV (GPS) Y RWY 14
RNAV (GPS) Y RWY 19L
RNAV (GPS) Y RWY 19R
VOR RWY 14
NDB RWY 01R